Regional Weather Roundup
Issued by NWS

Home | Current Version | Previous Version | Text Only | Print | Product List | Glossary Off
Versions: 1 2 3 4 5 6 7 8 9 10 11 12 13 14 15 16 17 18 19 20 21 22 23 24 25 26 27 28 29 30 31 32 33 34 35 36 37 38 39 40 41 42 43 44 45 46 47 48 49 50

000
ASUS45 KTFX 040104
RWRMT
MONTANA REGIONAL WEATHER ROUNDUP
NATIONAL WEATHER SERVICE GREAT FALLS MT
700 PM MDT THU SEP 03 2015

NOTE: "FAIR" INDICATES FEW OR NO CLOUDS BELOW 12000 FEET WITH NO
SIGNIFICANT WEATHER AND/OR OBSTRUCTIONS TO VISIBILITY.

MTZ001>007-043-040200-
WEST OF THE DIVIDE

CITY           SKY/WX    TMP DP  RH WIND       PRES   REMARKS
KALISPELL      CLOUDY    53  48  83 E6        29.95S
MISSOULA       CLOUDY    53  46  77 E7        29.98S
BUTTE          CLOUDY    55  36  48 W12       29.95R
MULLAN PASS    CLOUDY    43  37  79 VRB3      29.99S
DEER LODGE       N/A     52  37  58 NW18G24   29.99R
EUREKA           N/A     63  39  42 CALM      29.91S
HAMILTON         N/A     52  48  87 NE1       29.97F
LIBBY            N/A     63  34  34 CALM      29.91S
$$

MTZ008-052>055-040200-
SOUTHWEST MONTANA

CITY           SKY/WX    TMP DP  RH WIND       PRES   REMARKS
BOZEMAN        MOCLDY    67  42  40 NW10      29.84R
DILLON         CLOUDY    63  43  48 CALM      29.85R
W YELLOWSTONE  PTCLDY    70  28  21 SW9       29.92S
$$

MTZ009-010-012-014-046-048-049-054-040200-
EAST SLOPES AND CENTRAL MONTANA

CITY           SKY/WX    TMP DP  RH WIND       PRES   REMARKS
CUT BANK       CLOUDY    51  45  79 CALM      29.96R
GREAT FALLS    RAIN      50  47  89 N9        29.96R FOG
HELENA         LGT RAIN  56  46  69 W7        29.92R
$$

MTZ011-013-016-021-045-047-050-051-040200-
NORTH CENTRAL MONTANA

CITY           SKY/WX    TMP DP  RH WIND       PRES   REMARKS
HAVRE          CLOUDY    64  41  42 NE13      29.88S
LEWISTOWN      CLEAR     71  38  29 E12       29.87S
N BAR RANCH      N/A     68  39  34 NE8       29.91S
CHINOOK          N/A     64  41  42 N10G18    29.87R
FORT BENTON      N/A     59  43  55 W15       29.95R
$$

MTZ017>020-022>027-061-062-040200-
NORTHEAST MONTANA

CITY           SKY/WX    TMP DP  RH WIND       PRES   REMARKS
GLASGOW        PTCLDY    74  35  24 NE21      29.79S
JORDAN           N/A     77  42  28 N12       29.78R
SIDNEY         PTCLDY    81  48  32 N12         N/A
WOLF POINT     MOCLDY    77  41  27 N17G24    29.78R
PLENTYWOOD       N/A     73  43  33 N16G23    29.79S
POPLAR           N/A     75  39  27 N17G25    29.77R
$$

MTZ028>42-056>058-040200-
SOUTHCENTRAL AND SOUTHEAST MONTANA

CITY           SKY/WX    TMP DP  RH WIND       PRES   REMARKS
BAKER          MOCLDY    84  47  27 E8        29.75R
BILLINGS       CLOUDY    72  42  34 NE12      29.80R
LIVINGSTON     PTCLDY    71  39  31 E15       29.82R
MILES CITY     PTCLDY    82  44  26 NE14      29.72R
FORSYTH          N/A     79  43  27 N8        29.73S
$$

REGIONAL REPORTS...DAKOTAS

CITY           SKY/WX    TMP DP  RH WIND       PRES   REMARKS
WILLISTON      PTCLDY    79  53  40 N15       29.74R
MINOT          PTCLDY    80  68  66 NW10      29.67R
DICKINSON      PTCLDY    81  55  40 NE6       29.70S
BISMARCK       CLOUDY    87  58  37 SW12      29.68R
GRAND FORKS    PTCLDY    86  71  60 S15G23    29.70R HX  91
FARGO          CLEAR     86  73  65 SE14G23   29.74R HX  93
BUFFALO SD       N/A     80  53  39 E6        29.68S
RAPID CITY     PTCLDY    80  58  46 N9        29.74R
$$

REGIONAL REPORTS...WYOMING/IDAHO/WASHINGTON

CITY           SKY/WX    TMP DP  RH WIND       PRES   REMARKS
GILLETTE       MOCLDY    84  40  21 S10       29.77R
SHERIDAN       CLOUDY    75  42  30 NW21      29.78R
BUFFALO WY     MOCLDY    78  42  27 N16G23    29.82R
CODY           CLOUDY    70  43  37 NE6G16    29.85R
YELLOWSTONE LA   N/A     65  35  33 VRB6      30.04R
IDAHO FALLS    PTSUNNY   74  37  26 SW9       29.81S
SALMON         CLOUDY    57  41  54 N12G17    29.89R
BOISE          PTSUNNY   68  36  30 NW14      29.84F
SPOKANE        MOSUNNY   64  27  24 S9        29.92R
$$

REGIONAL REPORTS...ALBERTA

CITY           SKY/WX    TMP DP  RH WIND       PRES   REMARKS
$$

REGIONAL REPORTS...SASKATCHEWAN

CITY           SKY/WX    TMP DP  RH WIND       PRES   REMARKS
$$



USA.gov is the U.S. government's official web portal to all federal, state and local government web resources and services.